| time (UTC) | temp F | wind direction | speed knots | gust knots | rain 1hr in | rain 24hr in | rain mn in | humidity % | barometer mb |
| 20260510114531 | 66 | 51 | 2.6 | 5.2 | 0.00 | 3.02 | 0.00 | 99 | 1013.8 |
| 20260510113040 | 66 | 48 | 2.6 | 4.3 | 0.00 | 3.02 | 0.00 | 99 | 1013.7 |
| 20260510111530 | 66 | 12 | 1.7 | 4.3 | 0.00 | 3.02 | 0.00 | 99 | 1013.3 |
| 20260510110048 | 66 | 5 | 2.6 | 6.1 | 0.00 | 3.02 | 0.00 | 99 | 1013.0 |
| 20260510104536 | 66 | 65 | 1.7 | 4.3 | 0.00 | 3.02 | 0.00 | 99 | 1012.9 |
| 20260510103039 | 66 | 36 | 1.7 | 3.5 | 0.00 | 3.02 | 0.00 | 99 | 1012.7 |
| 20260510101532 | 66 | 65 | 0.9 | 3.5 | 0.00 | 3.02 | 0.00 | 99 | 1012.4 |
| 20260510100039 | 66 | 59 | 0.9 | 2.6 | 0.00 | 3.02 | 0.00 | 99 | 1012.2 |
| 20260510094540 | 66 | 59 | 1.7 | 3.5 | 0.00 | 3.02 | 0.00 | 99 | 1012.2 |
| 20260510093039 | 66 | 54 | 0.9 | 5.2 | 0.00 | 3.02 | 0.00 | 99 | 1012.0 |
| 20260510091533 | 66 | 36 | 0.9 | 3.5 | 0.00 | 3.02 | 0.00 | 99 | 1012.1 |
| 20260510090030 | 67 | 80 | 0.9 | 3.5 | 0.00 | 3.02 | 0.00 | 98 | 1012.2 |
| 20260510084535 | 66 | 64 | 0.0 | 2.6 | 0.00 | 3.02 | 0.00 | 98 | 1012.3 |
| 20260510083037 | 66 | 64 | 0.9 | 2.6 | 0.00 | 3.02 | 0.00 | 98 | 1012.3 |
| 20260510081541 | 66 | 23 | 0.9 | 4.3 | 0.00 | 3.02 | 0.00 | 98 | 1012.1 |
| 20260510080051 | 66 | 0 | 0.9 | 2.6 | 0.00 | 3.02 | 0.00 | 98 | 1011.9 |
| 20260510074539 | 66 | 0 | 0.0 | 0.0 | 0.00 | 3.02 | 0.00 | 98 | 1011.9 |
| 20260510073039 | 66 | 0 | 0.0 | 0.0 | 0.00 | 3.02 | 0.00 | 98 | 1011.9 |
| 20260510071537 | 66 | 0 | 0.0 | 0.0 | 0.00 | 3.02 | 0.00 | 98 | 1011.7 |
| 20260510070045 | 66 | 0 | 0.0 | 0.0 | 0.00 | 3.02 | 0.00 | 97 | 1011.7 |
| 20260510064534 | 67 | 0 | 0.0 | 0.0 | 0.00 | 3.02 | 0.00 | 97 | 1011.8 |
| 20260510063039 | 67 | 0 | 0.0 | 0.0 | 0.00 | 3.02 | 0.00 | 97 | 1011.7 |
| 20260510061537 | 67 | 0 | 0.0 | 0.0 | 0.00 | 3.02 | 0.00 | 97 | 1011.9 |
| 20260510060044 | 68 | 0 | 0.0 | 0.0 | 0.00 | 3.02 | 0.00 | 97 | 1012.0 |
| 20260510054535 | 68 | 0 | 0.0 | 0.0 | 0.00 | 3.02 | 0.00 | 97 | 1011.9 |
| 20260510053035 | 68 | 0 | 0.0 | 0.0 | 0.00 | 3.02 | 0.00 | 96 | 1012.1 |
| 20260510051533 | 69 | 0 | 0.0 | 1.7 | 0.00 | 3.02 | 0.00 | 96 | 1011.9 |
| 20260510050035 | 69 | 25 | 0.9 | 2.6 | 0.00 | 3.02 | 0.00 | 96 | 1011.8 |
| 20260510044536 | 69 | 264 | 0.9 | 2.6 | 0.00 | 3.02 | 3.02 | 96 | 1012.0 |
| 20260510043036 | 70 | 0 | 0.0 | 3.5 | 0.00 | 3.02 | 3.02 | 96 | 1012.1 |
| 20260510041532 | 70 | 334 | 0.9 | 4.3 | 0.00 | 3.02 | 3.02 | 96 | 1012.0 |
| 20260510040033 | 70 | 137 | 1.7 | 6.1 | 0.00 | 3.02 | 3.02 | 96 | 1011.5 |
| 20260510034536 | 70 | 206 | 1.7 | 7.8 | 0.00 | 3.02 | 3.02 | 97 | 1011.7 |
| 20260510033046 | 69 | 195 | 4.3 | 9.6 | 0.00 | 3.02 | 3.02 | 97 | 1011.9 |
| 20260510031538 | 69 | 200 | 5.2 | 10.4 | 0.00 | 3.02 | 3.02 | 97 | 1011.6 |
| 20260510030034 | 69 | 171 | 5.2 | 8.7 | 0.00 | 3.02 | 3.02 | 97 | 1011.9 |
| 20260510024532 | 69 | 170 | 2.6 | 7.0 | 0.00 | 3.02 | 3.02 | 97 | 1012.4 |
| 20260510023037 | 69 | 151 | 2.6 | 5.2 | 0.00 | 3.02 | 3.02 | 97 | 1012.3 |
| 20260510021611 | 69 | 200 | 1.7 | 5.2 | 0.00 | 3.02 | 3.02 | 97 | 1012.2 |
| 20260510020036 | 69 | 174 | 0.9 | 3.5 | 0.00 | 3.02 | 3.02 | 96 | 1012.4 |
| 20260510014547 | 69 | 48 | 1.7 | 6.1 | 0.00 | 3.02 | 3.02 | 97 | 1012.4 |
| 20260510013033 | 69 | 175 | 0.9 | 6.1 | 0.00 | 3.02 | 3.02 | 97 | 1012.2 |
| 20260510011535 | 69 | 163 | 1.7 | 3.5 | 0.00 | 3.02 | 3.02 | 97 | 1011.9 |
| 20260510010043 | 70 | 16 | 0.9 | 7.8 | 0.00 | 3.02 | 3.02 | 97 | 1011.8 |
| 20260510004535 | 70 | 0 | 0.0 | 2.6 | 0.00 | 3.02 | 3.02 | 97 | 1011.5 |
| 20260510003034 | 70 | 0 | 0.0 | 3.5 | 0.00 | 3.02 | 3.02 | 97 | 1011.4 |
| 20260510001539 | 70 | 99 | 1.7 | 3.5 | 0.00 | 3.02 | 3.02 | 97 | 1011.5 |
| 20260510000033 | 70 | 150 | 1.7 | 5.2 | 0.00 | 3.02 | 3.02 | 98 | 1011.2 |
| 20260509234536 | 70 | 195 | 1.7 | 5.2 | 0.00 | 3.02 | 3.02 | 98 | 1010.9 |
| 20260509233035 | 69 | 0 | 1.7 | 5.2 | 0.00 | 3.02 | 3.02 | 99 | 1011.1 |
| 20260509231534 | 69 | 51 | 2.6 | 6.1 | 0.00 | 3.02 | 3.02 | 99 | 1010.7 |
| 20260509230039 | 69 | 50 | 1.7 | 6.1 | 0.00 | 3.02 | 3.02 | 99 | 1010.4 |
| 20260509224536 | 68 | 114 | 2.6 | 9.6 | 0.01 | 3.02 | 3.02 | 99 | 1010.2 |
| 20260509223038 | 69 | 45 | 1.7 | 7.8 | 0.02 | 3.02 | 3.02 | 99 | 1009.7 |
| 20260509221538 | 68 | 5 | 3.5 | 11.3 | 0.02 | 3.02 | 3.02 | 99 | 1009.3 |
| 20260509220034 | 68 | 76 | 3.5 | 9.6 | 0.08 | 3.02 | 3.02 | 99 | 1009.7 |
| 20260509214538 | 68 | 57 | 3.5 | 7.0 | 0.09 | 3.01 | 3.01 | 99 | 1009.9 |
| 20260509213037 | 68 | 72 | 1.7 | 7.8 | 0.09 | 3.00 | 3.00 | 99 | 1010.9 |
| 20260509211536 | 68 | 43 | 3.5 | 7.8 | 0.11 | 3.00 | 3.00 | 99 | 1010.6 |
| 20260509210039 | 68 | 180 | 0.9 | 3.5 | 0.09 | 2.94 | 2.94 | 99 | 1010.9 |
| 20260509204535 | 68 | 341 | 0.9 | 5.2 | 0.37 | 2.92 | 2.92 | 99 | 1011.3 |
| 20260509203037 | 68 | 350 | 1.7 | 7.8 | 1.15 | 2.91 | 2.91 | 99 | 1011.2 |
| 20260509201539 | 68 | 200 | 0.9 | 9.6 | 1.67 | 2.89 | 2.89 | 99 | 1010.4 |
| 20260509200037 | 68 | 81 | 0.0 | 10.4 | 1.86 | 2.84 | 2.84 | 99 | 1010.8 |
| 20260509194550 | 68 | 183 | 4.3 | 12.2 | 1.56 | 2.56 | 2.53 | 98 | 1011.2 |
| 20260509193035 | 68 | 35 | 1.7 | 7.0 | 0.76 | 1.75 | 1.72 | 98 | 1011.1 |
| 20260509191535 | 68 | 5 | 2.6 | 6.1 | 0.36 | 1.25 | 1.22 | 98 | 1011.2 |
| 20260509190036 | 68 | 202 | 1.7 | 7.0 | 0.20 | 1.01 | 0.98 | 98 | 1011.5 |
| 20260509184535 | 68 | 53 | 4.3 | 12.2 | 0.43 | 1.52 | 0.97 | 98 | 1010.8 |
| 20260509183032 | 68 | 44 | 4.3 | 10.4 | 0.83 | 1.51 | 0.96 | 98 | 1011.1 |
| 20260509181538 | 68 | 96 | 1.7 | 7.8 | 0.78 | 1.41 | 0.86 | 98 | 1011.3 |
| 20260509180049 | 68 | 347 | 0.9 | 7.0 | 0.72 | 1.32 | 0.77 | 97 | 1011.7 |
| 20260509174535 | 68 | 150 | 2.6 | 7.0 | 0.48 | 1.07 | 0.52 | 97 | 1012.0 |
| 20260509173050 | 68 | 189 | 0.9 | 6.1 | 0.09 | 0.68 | 0.13 | 97 | 1011.7 |
| 20260509171537 | 68 | 59 | 1.7 | 6.1 | 0.03 | 0.62 | 0.07 | 97 | 1011.1 |
| 20260509170040 | 68 | 69 | 1.7 | 7.8 | 0.01 | 0.60 | 0.05 | 96 | 1011.4 |
| 20260509164537 | 68 | 0 | 1.7 | 7.8 | 0.00 | 0.60 | 0.04 | 96 | 1011.4 |
| 20260509163036 | 68 | 5 | 2.6 | 7.0 | 0.00 | 0.60 | 0.04 | 96 | 1011.6 |
| 20260509161541 | 68 | 119 | 1.7 | 9.6 | 0.00 | 0.60 | 0.04 | 96 | 1011.1 |
| 20260509160036 | 68 | 82 | 3.5 | 9.6 | 0.00 | 0.60 | 0.04 | 95 | 1011.5 |
| 20260509154543 | 68 | 74 | 5.2 | 10.4 | 0.00 | 0.64 | 0.04 | 96 | 1011.7 |
| 20260509153051 | 68 | 61 | 3.5 | 9.6 | 0.00 | 0.64 | 0.04 | 97 | 1011.3 |
| 20260509151535 | 67 | 106 | 3.5 | 11.3 | 0.00 | 0.64 | 0.04 | 97 | 1011.3 |
| 20260509150033 | 68 | 93 | 3.5 | 9.6 | 0.04 | 0.64 | 0.04 | 97 | 1011.5 |
| 20260509144533 | 68 | 109 | 5.2 | 13.0 | 0.04 | 0.64 | 0.04 | 97 | 1011.2 |
| 20260509143040 | 69 | 31 | 6.1 | 12.2 | 0.04 | 0.64 | 0.04 | 97 | 1010.9 |
| 20260509141540 | 70 | 5 | 3.5 | 7.8 | 0.04 | 0.64 | 0.04 | 97 | 1010.7 |
| 20260509140047 | 70 | 46 | 3.5 | 8.7 | 0.00 | 0.60 | 0.00 | 97 | 1010.8 |
| 20260509134534 | 73 | 73 | 2.6 | 7.8 | 0.00 | 0.60 | 0.00 | 96 | 1010.9 |
| 20260509133031 | 76 | 0 | 0.0 | 2.6 | 0.00 | 0.60 | 0.00 | 98 | 1010.4 |
| 20260509131537 | 76 | 0 | 0.0 | 2.6 | 0.00 | 0.60 | 0.00 | 98 | 1010.7 |
| 20260509130036 | 76 | 209 | 0.9 | 2.6 | 0.00 | 0.60 | 0.00 | 98 | 1010.3 |
| 20260509124535 | 76 | 0 | 0.0 | 1.7 | 0.00 | 0.60 | 0.00 | 98 | 1010.4 |
| 20260509123034 | 75 | 0 | 0.0 | 1.7 | 0.00 | 0.60 | 0.00 | 98 | 1010.2 |
| 20260509121533 | 75 | 209 | 0.9 | 1.7 | 0.00 | 0.60 | 0.00 | 98 | 1010.2 |
| 20260509120030 | 75 | 0 | 0.0 | 0.0 | 0.00 | 0.60 | 0.00 | 98 | 1010.3 |